Change the Weather History Date:

Tuesday, March 11, 2014

  Actual Average Record
Temperature  
Mean Temperature 49 °F -  
Max Temperature 57 °F 57 °F - ()
Min Temperature 41 °F 40 °F - ()
Degree Days  
Heating Degree Days 16    
Moisture  
Dew Point 38 °F    
Average Humidity 66    
Maximum Humidity 87    
Minimum Humidity 38    
Precipitation  
Precipitation 0.00 in 0.11 in - ()
Sea Level Pressure  
Sea Level Pressure 30.25 in    
Wind  
Wind Speed 5 mph ()    
Max Wind Speed 8 mph    
Max Gust Speed -    
Visibility 4.6 miles    
Events      
T = Trace of Precipitation, MM = Missing Value Source: Averaged Metar Reports

Daily Weather History Graph

Daily Weather History Graph

Search for Another Location

Airport or City:

Trip Planner

Search our weather history database for the weather conditions in past years. The results will help you decide how hot, cold, wet, or windy it might be!

Date:

Astronomy

Mar. 11, 2014 Rise Set
Actual Time 6:41 AM CET 6:21 PM CET
Civil Twilight 6:12 AM CET 6:51 PM CET
Nautical Twilight 5:37 AM CET 7:25 PM CET
Astronomical Twilight 5:02 AM CET 8:00 PM CET
Moon 1:32 PM CET (3/11) 3:35 AM CET (3/11)
Length of Visible Light 12h 38m
Length of Day
11h 39m
Waxing Gibbous, 76% of the Moon is Illuminated
Mar 11
Waxing Gibbous
Mar 16
Full
Mar 24
Last Quarter
Mar 30
New
Apr 7
First Quarter

Hourly Weather History & Observations

Time (CET) Temp. Windchill Dew Point Humidity Pressure Visibility Wind Dir Wind Speed Gust Speed Precip Events Conditions
12:20 AM 46.4 °F 43.5 °F 39.2 °F 76% 30.18 in 4.3 mi NE 5.8 mph - N/A   Scattered Clouds
12:50 AM 46.4 °F 44.3 °F 37.4 °F 71% 30.18 in 5.0 mi NNE 4.6 mph - N/A   Scattered Clouds
1:00 AM 45 °F - 38 °F 69% 30.22 in 5 mi NNE 5.8 mph - -  
1:20 AM 44.6 °F 42.2 °F 37.4 °F 76% 30.18 in 5.0 mi NNE 4.6 mph - N/A   Unknown
1:50 AM 42.8 °F 40.1 °F 37.4 °F 81% 30.18 in 5.0 mi NNE 4.6 mph - N/A   Unknown
2:20 AM 44.6 °F 40.7 °F 37.4 °F 76% 30.18 in 5.0 mi NNE 6.9 mph - N/A   Unknown
2:50 AM 44.6 °F 42.2 °F 37.4 °F 76% 30.18 in 5.0 mi North 4.6 mph - N/A   Unknown
3:20 AM 42.8 °F 38.0 °F 37.4 °F 81% 30.18 in 5.0 mi North 8.1 mph - N/A   Unknown
3:50 AM 42.8 °F 38.6 °F 37.4 °F 81% 30.18 in 5.0 mi North 6.9 mph - N/A   Unknown
4:00 AM 42 °F - 37 °F 76% 30.21 in 5 mi North 8.1 mph - -  
4:20 AM 42.8 °F 38.0 °F 37.4 °F 81% 30.15 in 5.0 mi North 8.1 mph - N/A   Unknown
4:50 AM 42.8 °F 38.6 °F 37.4 °F 81% 30.18 in 4.3 mi North 6.9 mph - N/A   Unknown
5:20 AM 41.0 °F 37.1 °F 37.4 °F 87% 30.18 in 4.3 mi North 5.8 mph - N/A   Unknown
5:50 AM 42.8 °F 38.0 °F 37.4 °F 81% 30.15 in 4.3 mi North 8.1 mph - N/A   Unknown
6:20 AM 42.8 °F 38.0 °F 37.4 °F 81% 30.18 in 4.3 mi North 8.1 mph - N/A   Unknown
6:50 AM 42.8 °F 41.1 °F 35.6 °F 76% 30.18 in 3.7 mi NE 3.5 mph - N/A   Unknown
7:00 AM 41 °F - 36 °F 76% 30.22 in 4 mi NNE 2.3 mph - -  
7:20 AM 42.8 °F 41.1 °F 37.4 °F 81% 30.18 in 3.7 mi NE 3.5 mph - N/A   Unknown
7:50 AM 42.8 °F 39.3 °F 37.4 °F 81% 30.21 in 3.7 mi NNE 5.8 mph - N/A   Unknown
8:20 AM 44.6 °F 41.4 °F 37.4 °F 76% 30.21 in 3.7 mi North 5.8 mph - N/A   Unknown
8:50 AM 46.4 °F 44.3 °F 39.2 °F 76% 30.21 in 3.7 mi North 4.6 mph - N/A   Unknown
9:20 AM 48.2 °F - 39.2 °F 71% 30.24 in 3.7 mi Variable 2.3 mph - N/A   Unknown
9:50 AM 51.8 °F - 37.4 °F 58% 30.24 in 3.7 mi Variable 2.3 mph - N/A   Unknown
10:00 AM 53 °F - 38 °F 45% 30.27 in 4 mi SE 2.3 mph - -  
10:20 AM 51.8 °F - 35.6 °F 54% 30.24 in 3.7 mi Variable 2.3 mph - N/A   Unknown
10:50 AM 53.6 °F - 37.4 °F 54% 30.24 in 5.0 mi South 3.5 mph - N/A   Unknown
11:20 AM 53.6 °F - 39.2 °F 58% 30.24 in 5.0 mi SSW 4.6 mph - N/A   Unknown
11:50 AM 53.6 °F - 37.4 °F 54% 30.24 in 5.0 mi South 5.8 mph - N/A   Unknown
12:20 PM 55.4 °F - 39.2 °F 54% 30.24 in 5.0 mi SSE 6.9 mph - N/A   Unknown
12:50 PM 55.4 °F - 37.4 °F 51% 30.24 in 5.0 mi SSE 5.8 mph - N/A   Unknown
1:00 PM 55 °F - 37 °F 40% 30.27 in 6 mi South 5.8 mph - -  
1:20 PM 55.4 °F - 37.4 °F 51% 30.24 in 5.0 mi Variable 4.6 mph - N/A   Unknown
1:50 PM 55.4 °F - 35.6 °F 47% 30.24 in 5.0 mi South 4.6 mph - N/A   Unknown
2:20 PM 55.4 °F - 35.6 °F 47% 30.24 in - SSW 6.9 mph - N/A   Clear
2:50 PM 55.4 °F - 35.6 °F 47% 30.24 in - SSE 4.6 mph - N/A   Clear
3:20 PM 55.4 °F - 37.4 °F 51% 30.24 in - SSW 5.8 mph - N/A   Clear
3:50 PM 57.2 °F - 37.4 °F 48% 30.24 in - South 4.6 mph - N/A   Clear
4:00 PM 56 °F - 38 °F 38% 30.26 in 6 mi SSW 5.8 mph - -  
4:20 PM 57.2 °F - 37.4 °F 48% 30.24 in - SSW 3.5 mph - N/A   Clear
4:50 PM 55.4 °F - 39.2 °F 54% 30.24 in 5.0 mi SSW 4.6 mph - N/A   Unknown
5:20 PM 53.6 °F - 37.4 °F 54% 30.24 in 5.0 mi SW 5.8 mph - N/A   Unknown
5:50 PM 53.6 °F - 39.2 °F 58% 30.27 in 5.0 mi SW 4.6 mph - N/A   Unknown
6:20 PM 53.6 °F - 37.4 °F 54% 30.27 in 5.0 mi SSW 3.5 mph - N/A   Unknown
6:50 PM 53.6 °F - 37.4 °F 54% 30.30 in 5.0 mi SSW 3.5 mph - N/A   Unknown
7:00 PM 52 °F - 38 °F 47% 30.32 in 5 mi SSW 2.3 mph - -   Mist
7:20 PM 51.8 °F - 37.4 °F 58% 30.30 in 5.0 mi South 3.5 mph - N/A   Unknown
7:50 PM 48.2 °F - 39.2 °F 71% 30.30 in 5.0 mi Variable 2.3 mph - N/A   Unknown
8:20 PM 48.2 °F - 39.2 °F 71% 30.33 in 5.0 mi NE 4.6 mph - N/A   Unknown
8:50 PM 48.2 °F - 39.2 °F 71% 30.33 in 5.0 mi NNE 3.5 mph - N/A   Unknown
9:20 PM 46.4 °F 43.5 °F 39.2 °F 76% 30.36 in 4.3 mi NNE 5.8 mph - N/A   Unknown
9:50 PM 44.6 °F 41.4 °F 39.2 °F 81% 30.36 in 4.3 mi NNE 5.8 mph - N/A   Unknown
10:00 PM 46 °F - 38 °F 66% 30.40 in 4 mi North 5.8 mph - -   Mist
10:20 PM 44.6 °F 41.4 °F 37.4 °F 76% 30.36 in 4.3 mi North 5.8 mph - N/A   Unknown
10:50 PM 44.6 °F 41.4 °F 37.4 °F 76% 30.39 in 4.3 mi North 5.8 mph - N/A   Unknown
11:20 PM 44.6 °F 40.7 °F 37.4 °F 76% 30.39 in 4.3 mi North 6.9 mph - N/A   Unknown
11:50 PM 42.8 °F 38.6 °F 37.4 °F 81% 30.39 in 4.3 mi North 6.9 mph - N/A   Unknown